{"data":{"norad_id":65388,"intl_designator":"2025-191K","name":"STARLINK-34957","alt_names":[],"object_type":"PAYLOAD","status":"ACTIVE","operator":null,"country":"US","launch_date":"2025-08-30","launch_site_code":"AFWTR","launch_vehicle":null,"mission":null,"orbit_class":"UNKNOWN","rcs_meters":null,"size_class":null,"mass_kg":null,"dimensions":null,"purposes":["comms"],"wikipedia_slug":null,"has_3d_model":false,"image_url":null,"decayed_at":null,"tle_current":{"epoch":"2026-05-25T02:48:08.707680Z","epoch_age_seconds":55155,"freshness":"FRESH","line1":"1 65388U 25191K   26145.11676745  .00003730  00000+0  26241-3 0  9993","line2":"2 65388  97.4533  16.5472 0002041  86.9661 273.1799 15.05658704 41779","mean_motion":15.05658704,"eccentricity":0.0002041,"inclination_deg":97.4533,"raan_deg":16.5472,"arg_perigee_deg":86.9661,"mean_anomaly_deg":273.1799,"bstar":0.00026241,"rev_number":4177,"period_min":95.639204035711,"perigee_km":548.07052797159,"apogee_km":550.89838304972,"semimajor_km":6927.6214555107,"source":"CELESTRAK","updated_at":"2026-05-25T13:38:20.773699Z"}}}